LLETLLSD

Guest
Details From LLET - Eilat
To LLSD - Sde Dov
Flight Number -
Tags Generated
Created
Modified
Stats Distance 154 nm / 285 km
Max Altitude 0 ft / 0 m
Waypoints 2
Social Downloads 17
Likes 0
Share VATSIM

Download

Looking for another format? Having issues loading an existing format? Contact us
Advertisement - Login to hide

Notes

Generated

Route

LLET LLSD

ID Type Via Altitude Latitude Longitude Leg Dist Tot Dist Heading (true) Name
O LLET APT - 0 ft / 0 m 29.55370˚ 34.95550˚ - 0 nm - -
O LLSD APT - 0 ft / 0 m 32.10774˚ 34.77796˚ 153 nm 153 nm 357° / 357° Sde Dov

Altitude Profile

Advertisement - Login to hide

LLET

Details ICAO LLET (ETH)
Name EILAT
Region Israel
Timezone Asia/Jerusalem (UTC+3.0)
Stats Elevation 42 ft / 13 m (AMSL)
Location 29.561268° 34.960111°
Runways 1
Magnetic Variation 4.464° E

METAR

LLET 201550Z 32011KT CAVOK 42/06 Q1004

Decode

TAF

TAF LLET 200503Z 2006/2106 04005KT CAVOK BECMG 2008/2010 19008KT BECMG 2015/2017 36010KT TX41/2011Z TN27/2103Z

Decode

Departure Runways

ID Width Length Bearing (true) Bearing (mag) Surface Threshold Offset Overrun Length
03 89 ft / 27 m 6,249 ft / 1,905 m 27.93° 23.47° Asphalt 945 ft / 288 m 125 ft / 38 m
21 89 ft / 27 m 6,249 ft / 1,905 m 207.93° 203.47° Asphalt 0 ft / 0 m 0 ft / 0 m

LLSD

Details ICAO LLSD (SDV)
Name Sde Dov
Region Israel
Timezone Asia/Jerusalem (UTC+3.0)
Stats Elevation 43 ft / 13 m (AMSL)
Location 32.114661° 34.782238°
Runways 1
Magnetic Variation 4.732° E

METAR

LLSD 201550Z 34004KT CAVOK 26/19 Q1009

Decode

TAF

TAF LLSD 201101Z 2012/2112 28011KT CAVOK BECMG 2016/2018 VRB03KT BECMG 2020/2022 17005KT 7000 SCT010 PROB40 2023/2106 1500 BCFG BKN004 BECMG 2106/2108 24006KT 9999 FEW020 TX29/2012Z TN22/2103Z

Decode

Destination Runways

ID Width Length Bearing (true) Bearing (mag) Surface Threshold Offset Overrun Length
03 98 ft / 30 m 5,704 ft / 1,738 m 27.61° 22.88° Asphalt 341 ft / 104 m 0 ft / 0 m
21 98 ft / 30 m 5,704 ft / 1,738 m 207.61° 202.88° Asphalt 230 ft / 70 m 0 ft / 0 m

Popular Alternatives